Location: Unspecified
(0.0000°N, 0.0000°E)
Time: 10:57:25
(UTC+00:00)

Envisat - Pass Details

Date: 26 May 2020
Orbit: 764 x 766 km, 98.1° (Epoch: 30 May)

Event Time Altitude Azimuth Distance (km) Brightness Sun altitude
Rises 18:23:53 0° 181° (S) 3,230 6.0 -6.2°
Reaches altitude 10° 18:26:18 10° 188° (S) 2,302 5.4 -6.8°
Maximum altitude 18:31:03 42° 258° (WSW) 1,088 4.4 -7.9°
Drops below altitude 10° 18:35:48 10° 328° (NNW) 2,292 6.4 -9.0°
Sets 18:38:12 0° 335° (NNW) 3,215 7.0 -9.6°
